Flag for U.S.A. Weather past 2 weeks in Washington DC, District of Columbia, U.S.A.

Now
34 °F

Partly sunny.


Feels Like: 28 °F
Forecast: 28 / 42 °F
Wind: 7 mph from North

Location: Reagan National Airport

Current Time: Dec 20, 2014 at 9:26:52 AM

Latest Report: Dec 20, 2014 at 8:52 AM


Visibility: 10 mi

Pressure: 30.34 "Hg

Humidity: 56%

Dew point: 20 °F

Location of Washington DCLocation

Historic Weather in Washington DC — Graph

°F

Washington DC temperature yesterday

Maximum temperature yesterday: 42 °F (at 2:52 PM)
Minimum temperature yesterday: 34 °F (at 11:52 PM)
Average temperature yesterday: 39 °F

Past Weeks' High & Low Weather Summary

 TemperatureHumidityPressure
High58 °F (Dec 17, 12:52 PM)89% (Dec 6, 3:52 PM)30.60 "Hg (Dec 6, 3:52 PM)
Low31 °F (Dec 20, 6:52 AM)21% (Dec 11, 11:52 PM)29.81 "Hg (Dec 10, 1:52 PM)
Average43 °F59%30.11 "Hg
* Reported Dec 5 7:52 AM — Dec 20 7:52 AM, Washington DC, Weather by CustomWeather, © 2014

Note: Actual official high and low records may vary slightly from our data, if they occured in-between our weather recording intervals... More about our weather records

Advertising

Washington DC weather history for previous 24 hours

 ConditionsComfort  
Time TempWeatherWind HumidityBarometerVisibility
7:52 AM
Dec 20
32 °FPartly sunny.7 mph61%30.31 "Hg10 mi
6:52 AM31 °FPassing clouds.6 mph64%30.31 "Hg10 mi
5:52 AM32 °FPassing clouds.6 mph59%30.29 "Hg10 mi
4:52 AM32 °FPassing clouds.5 mph59%30.27 "Hg10 mi
3:52 AM32 °FPassing clouds.No wind61%30.27 "Hg10 mi
2:52 AM33 °FClear.8 mph58%30.27 "Hg10 mi
1:52 AM34 °FClear.8 mph56%30.26 "Hg10 mi
12:52 AM34 °FClear.7 mph59%30.25 "Hg10 mi
11:52 PM
Dec 19
34 °FClear.8 mph59%30.26 "Hg10 mi
10:52 PM35 °FClear.8 mph59%30.27 "Hg10 mi
9:52 PM36 °FClear.10 mph57%30.27 "Hg10 mi
8:52 PM37 °FClear.13 mph54%30.25 "Hg10 mi
7:52 PM38 °FClear.10 mph53%30.23 "Hg10 mi
6:52 PM39 °FClear.10 mph50%30.22 "Hg10 mi
5:52 PM40 °FPassing clouds.12 mph49%30.19 "Hg10 mi
4:52 PM41 °FPassing clouds.12 mph47%30.19 "Hg10 mi
3:52 PM42 °FScattered clouds.12 mph45%30.16 "Hg10 mi
2:52 PM42 °FPartly sunny.13 mph47%30.16 "Hg10 mi
1:52 PM41 °FOvercast.16 mph49%30.13 "Hg10 mi
12:52 PM41 °FOvercast.14 mph49%30.15 "Hg10 mi
11:52 AM40 °FOvercast.13 mph53%30.17 "Hg10 mi
10:52 AM39 °FOvercast.14 mph53%30.19 "Hg10 mi
9:52 AM39 °FOvercast.13 mph50%30.19 "Hg10 mi
Weather by CustomWeather, © 2014

See weather overviewHow to use our weather pages